Weather in Tshekino

Russia / Tula Oblast     54°00′07″N   37°31′03″E
temp.,
°C
wind,
m/s
gust,
m/s
humid.,
%
clouds,
%
prec.,
mm/h
press.,
hPa
HPBL,
m
13 may, thu
thu1300:00+6ese36965 0.0 101999
03:00+6e4109591 0.0 1019204
06:00+7ese6149334 0.0 1018383
09:00+12ese7118175 0.0 1017729
12:00+13s6982100 0.7 10161073
15:00+12sse61284100 5.0 1016685
18:00+13s488393 0.1 1015639
21:00+10sse339283 0.1 101543
14 may, fri
fri1400:00+9sse33944 0.0 101639
03:00+8se2393100 0.0 101628
06:00+10se359290 0.0 1016110
09:00+16se468091 0.0 1016430
12:00+19se6874100 1.2 1014877
15:00+22se7116785 2.3 10121475
18:00+20sse6127740 2.3 1011614
21:00+16sse41090100 2.5 1011192
15 may, sat
sat1500:00+15sse4791100 0.1 1010138
03:00+15se51191100 0.9 1010256
06:00+15se51193100 0.6 1009287
09:00+18s5786100 1.1 1009596
12:00+20ssw587393 1.6 10101010
15:00+21sw696269 1.9 10101630
18:00+19sw48732 0.3 1010939
21:00+14sw3589100 0.4 101180
16 may, sun
sun1600:00+13ssw35915 0.0 101280
03:00+11ssw36945 0.0 101396
06:00+12ssw37940 0.0 1013229
09:00+15sw69730 0.0 1014800
12:00+18wsw56630 0.0 10141136
15:00+20wsw34586 0.0 10141403
18:00+20ssw226515 0.0 10141153
21:00+15se11795 0.0 101411
17 may, mon
mon1700:00+13ene338396 0.0 101427
03:00+12ene478870 0.0 1014111
06:00+13ene512865 0.0 1014274
09:00+19e7127518 0.0 1012529
12:00+23ese71067100 0.0 1011725
15:00+25ese7115812 0.0 10101519
18:00+22ese6126477 0.0 1010561
21:00+19ese61677100 0.0 1010379